Location: Newark
(53.3469°N, 7.1606°E)
Time: 12:31:56
(UTC+00:00)

N. Korean satellite - Pass Details

Date: 19 November 2019
Orbit: 455 x 507 km, 97.2° (Epoch: 15 December)

Event Time Altitude Azimuth Distance (km) Brightness Sun altitude
Rises 06:04:57 0° 9° (N) 2,627 10.2 -8.5°
Reaches altitude 10° 06:07:06 10° 4° (N) 1,734 9.2 -8.3°
Maximum altitude 06:10:42 47° 290° (WNW) 676 6.9 -7.8°
Drops below altitude 10° 06:14:15 10° 216° (SW) 1,705 9.2 -7.3°
Sets 06:16:21 0° 210° (SSW) 2,576 10.2 -7.0°
